EW9154 Weather Reports


time (UTC)temp
C
wind
direction
speed
KPH
gust
KPH
rain 1hr
cm
rain 24hr
cm
rain mn
cm
humidity
%
barometer
mb
20260506002858 8 315 0.0 1.6 0.00 0.00 0.00 44 1024.4
20260506002329 8 5 0.0 1.6 0.00 0.00 0.00 44 1024.3
20260506001827 8 281 0.0 1.6 0.00 0.00 0.00 43 1024.3
20260506001326 8 243 0.0 0.0 0.00 0.00 0.00 43 1024.2
20260506000825 8 276 0.0 0.0 0.00 0.00 0.00 43 1024.2
20260506000558 8 276 0.0 1.6 0.00 0.00 0.00 42 1024.2
20260505235759 8 243 0.0 1.6 0.00 0.00 0.00 42 1024.2
20260505235257 9 231 0.0 0.0 0.00 0.00 0.00 41 1024.1
20260505234730 9 232 0.0 0.0 0.00 0.00 0.00 41 1024.1
20260505234227 9 260 0.0 0.0 0.00 0.00 0.00 41 1024.0
20260505233723 9 297 0.0 0.0 0.00 0.00 0.00 41 1024.0
20260505233222 10 285 0.0 6.4 0.00 0.00 0.00 39 1023.9
20260505232709 10 282 0.0 6.4 0.00 0.00 0.00 39 1023.9
20260505232209 10 250 0.0 12.9 0.00 0.00 0.00 39 1023.9
20260505231702 10 264 0.0 12.9 0.00 0.00 0.00 39 1024.0
20260505231149 10 234 0.0 0.0 0.00 0.00 0.00 39 1024.0
20260505230648 10 235 0.0 1.6 0.00 0.00 0.00 39 1024.0
20260505230357 10 283 0.0 0.0 0.00 0.00 0.00 40 1024.0
20260505225549 10 188 0.0 6.4 0.00 0.00 0.00 41 1024.0
20260505225317 10 202 0.0 6.4 0.00 0.00 0.00 39 1024.0
20260505224805 10 264 0.0 1.6 0.00 0.00 0.00 39 1023.9
20260505224006 10 291 0.0 1.6 0.00 0.00 0.00 38 1023.9
20260505223503 10 215 0.0 1.6 0.00 0.00 0.00 39 1023.9
20260505223237 10 217 0.0 16.1 0.00 0.00 0.00 39 1023.9
20260505222438 10 286 0.0 16.1 0.00 0.00 0.00 38 1023.8
20260505222414 10 242 0.0 1.6 0.00 0.00 0.00 38 1023.8
20260505221412 10 258 0.0 1.6 0.00 0.00 0.00 38 1023.8
20260505220846 10 216 0.0 1.6 0.00 0.00 0.00 39 1023.8
20260505220333 10 239 0.0 11.3 0.00 0.00 0.00 39 1023.8
20260505215836 10 187 0.0 11.3 0.00 0.00 0.00 38 1023.8
20260505215310 11 221 0.0 6.4 0.00 0.00 0.00 38 1023.9
20260505214808 11 288 0.0 12.9 0.00 0.00 0.00 38 1023.8
20260505214310 11 273 0.0 6.4 0.00 0.00 0.00 37 1023.9
20260505213742 11 242 0.0 4.8 0.00 0.00 0.00 37 1024.0
20260505213444 10 243 0.0 9.7 0.00 0.00 0.00 38 1023.9
20260505213322 11 304 0.0 9.7 0.00 0.00 0.00 38 1024.0
20260505212715 10 256 0.0 11.3 0.00 0.00 0.00 38 1024.0
20260505211709 10 301 0.0 11.3 0.00 0.00 0.00 37 1024.0
20260505211213 10 234 0.0 6.4 0.00 0.00 0.00 38 1024.1
20260505210652 10 184 0.0 6.4 0.00 0.00 0.00 40 1024.1
20260505210156 10 285 0.0 1.6 0.00 0.00 0.00 39 1024.1
20260505205638 10 265 0.0 3.2 0.00 0.00 0.00 39 1024.1
20260505205410 10 246 0.0 3.2 0.00 0.00 0.00 38 1024.1
20260505204619 10 279 0.0 0.0 0.00 0.00 0.00 38 1024.0
20260505204118 10 253 0.0 0.0 0.00 0.00 0.00 38 1024.0
20260505203618 10 273 0.0 8.0 0.00 0.00 0.00 38 1024.1
20260505203349 10 229 0.0 8.0 0.00 0.00 0.00 37 1024.1
20260505202613 10 207 0.0 1.6 0.00 0.00 0.00 38 1024.1
20260505202347 10 229 0.0 11.3 0.00 0.00 0.00 39 1024.2
20260505201552 10 235 0.0 11.3 0.00 0.00 0.00 39 1024.2
20260505201050 10 248 0.0 1.6 0.00 0.00 0.00 39 1024.3
20260505200819 10 247 0.0 3.2 0.00 0.00 0.00 38 1024.2
20260505200030 10 243 0.0 3.2 0.00 0.00 0.00 40 1024.2
20260505195531 10 243 0.0 11.3 0.00 0.00 0.00 40 1024.3
20260505195031 10 267 0.0 11.3 0.00 0.00 0.00 40 1024.3
20260505194513 10 236 0.0 1.6 0.00 0.00 0.00 40 1024.3
20260505194009 10 181 0.0 1.6 0.00 0.00 0.00 40 1024.3
20260505193742 10 258 0.0 1.6 0.00 0.00 0.00 40 1024.2
20260505192950 10 236 0.0 4.8 0.00 0.00 0.00 41 1024.3
20260505192426 10 234 0.0 4.8 0.00 0.00 0.00 41 1024.3
20260505191855 10 257 0.0 4.8 0.00 0.00 0.00 39 1024.3
20260505191356 10 248 0.0 4.8 0.00 0.00 0.00 40 1024.3
20260505190830 10 261 0.0 16.1 0.00 0.00 0.00 40 1024.3
20260505190309 10 241 0.0 16.1 0.00 0.00 0.00 40 1024.3
20260505185805 10 229 1.6 6.4 0.00 0.00 0.00 42 1024.3
20260505185238 9 269 1.6 20.9 0.00 0.00 0.00 42 1024.4
20260505184948 9 236 1.6 20.9 0.00 0.00 0.00 40 1024.4
20260505184215 10 270 0.0 12.9 0.00 0.00 0.00 39 1024.5
20260505183712 10 234 0.0 9.7 0.00 0.00 0.00 40 1024.4
20260505183146 10 255 0.0 9.7 0.00 0.00 0.00 39 1024.3
20260505182855 10 249 0.0 12.9 0.00 0.00 0.00 38 1024.3
20260505182121 10 165 1.6 12.9 0.00 0.00 0.00 39 1024.3
20260505181616 10 211 1.6 19.3 0.00 0.00 0.00 38 1024.3
20260505180506 10 209 1.6 17.7 0.00 0.00 0.00 38 1024.3
20260505175957 10 235 1.6 17.7 0.00 0.00 0.00 38 1024.2
20260505175425 10 254 0.0 17.7 0.00 0.00 0.00 37 1024.3
20260505175359 10 245 0.0 16.1 0.00 0.00 0.00 37 1024.4
20260505174604 10 242 0.0 6.4 0.00 0.00 0.00 36 1024.3
20260505173815 10 277 0.0 0.0 0.00 0.00 0.00 38 1024.3
20260505173312 10 276 0.0 3.2 0.00 0.00 0.00 39 1024.4
20260505172814 9 252 0.0 3.2 0.00 0.00 0.00 38 1024.4
20260505172246 9 248 0.0 11.3 0.00 0.00 0.00 38 1024.4
20260505171743 10 241 0.0 11.3 0.00 0.00 0.00 36 1024.4
20260505171217 10 215 0.0 14.5 0.00 0.00 0.00 36 1024.3
20260505170653 10 257 0.0 8.0 0.00 0.00 0.00 35 1024.4
20260505170356 10 257 0.0 1.6 0.00 0.00 0.00 36 1024.4
20260505165844 10 238 0.0 4.8 0.00 0.00 0.00 37 1024.5
20260505165113 10 293 0.0 4.8 0.00 0.00 0.00 37 1024.4
20260505164541 10 335 0.0 0.0 0.00 0.00 0.00 37 1024.5
20260505164018 10 234 0.0 3.2 0.00 0.00 0.00 37 1024.4
20260505163743 10 252 0.0 3.2 0.00 0.00 0.00 38 1024.4
20260505163009 10 237 0.0 1.6 0.00 0.00 0.00 37 1024.5
20260505162730 10 261 0.0 0.0 0.00 0.00 0.00 37 1024.5
20260505161956 10 316 0.0 0.0 0.00 0.00 0.00 36 1024.6
20260505161428 10 244 0.0 3.2 0.00 0.00 0.00 36 1024.6
20260505161157 10 245 0.0 3.2 0.00 0.00 0.00 36 1024.5
20260505160359 11 209 0.0 6.4 0.00 0.00 0.00 36 1024.5
20260505153242 10 227 0.0 4.8 0.00 0.00 0.00 39 1024.3
20260505152717 9 229 0.0 4.8 0.00 0.00 0.00 39 1024.4
20260505152210 10 231 0.0 4.8 0.00 0.00 0.00 39 1024.4
20260505151708 9 239 0.0 0.0 0.00 0.00 0.00 42 1024.4
20260505151207 9 238 0.0 0.0 0.00 0.00 0.00 41 1024.4
20260505150638 8 237 0.0 0.0 0.00 0.00 0.00 41 1024.4
20260505150137 8 261 0.0 0.0 0.00 0.00 0.00 42 1024.5
20260505140149 6 240 0.0 0.0 0.00 0.00 0.00 49 1023.9
20260505130221 4 236 0.0 0.0 0.00 0.00 0.00 55 1023.5
20260505124628 4 327 0.0 0.0 0.00 0.00 0.00 57 1023.4
20260505124104 3 327 0.0 0.0 0.00 0.00 0.00 58 1023.4
20260505123535 3 355 0.0 0.0 0.00 0.00 0.00 60 1023.2
20260505123306 3 5 0.0 1.6 0.00 0.00 0.00 60 1023.1
20260505122504 3 53 0.0 1.6 0.00 0.00 0.00 62 1023.0
20260505122231 3 235 0.0 0.0 0.00 0.00 0.00 64 1022.9
20260505121446 3 237 0.0 0.0 0.00 0.00 0.00 65 1022.8
20260505120937 3 237 0.0 0.0 0.00 0.00 0.00 65 1022.7
20260505120411 3 237 0.0 0.0 0.00 0.00 0.00 67 1022.7
20260505115845 3 237 0.0 0.0 0.00 0.00 0.00 68 1022.6
20260505115611 2 237 0.0 0.0 0.00 0.00 0.00 70 1022.5
20260505115446 3 237 0.0 0.0 0.00 0.00 0.00 69 1022.6
20260505114329 2 277 0.0 0.0 0.00 0.00 0.00 70 1022.5
20260505113824 2 9 0.0 0.0 0.00 0.00 0.00 71 1022.4
20260505113322 2 0 0.0 0.0 0.00 0.00 0.00 71 1022.1
20260505113024 2 355 0.0 0.0 0.00 0.00 0.00 71 1022.0
20260505112252 2 355 0.0 0.0 0.00 0.00 0.00 72 1021.9
20260505111746 2 355 0.0 0.0 0.00 0.00 0.00 72 1021.8
20260505111251 2 355 0.0 0.0 0.00 0.00 0.00 72 1021.7
20260505110723 2 210 0.0 0.0 0.00 0.00 0.00 73 1021.7
20260505110222 2 238 0.0 0.0 0.00 0.00 0.00 72 1021.8
20260505102033 3 230 0.0 0.0 0.00 0.00 0.00 68 1021.5
20260505101512 3 230 0.0 0.0 0.00 0.00 0.00 68 1021.5
20260505101015 3 230 0.0 0.0 0.00 0.00 0.00 68 1021.5
20260505100449 3 230 0.0 0.0 0.00 0.00 0.00 67 1021.5
20260505095921 3 230 0.0 0.0 0.00 0.00 0.00 67 1021.5
20260505095422 3 230 0.0 0.0 0.00 0.00 0.00 66 1021.5
20260505094904 3 230 0.0 0.0 0.00 0.00 0.00 66 1021.5
20260505094634 3 230 0.0 0.0 0.00 0.00 0.00 65 1021.4
20260505094131 3 230 0.0 0.0 0.00 0.00 0.00 65 1021.3
20260505093401 3 230 0.0 0.0 0.00 0.00 0.00 65 1021.3
20260505092843 3 230 0.0 0.0 0.00 0.00 0.00 65 1021.2
20260505092341 3 229 0.0 0.0 0.00 0.00 0.00 64 1021.2
20260505091822 3 229 0.0 0.0 0.00 0.00 0.00 64 1021.2
20260505091538 4 241 0.0 0.0 0.00 0.00 0.00 63 1021.1
20260505090734 4 241 0.0 0.0 0.00 0.00 0.00 63 1021.1
20260505090212 4 241 0.0 0.0 0.00 0.00 0.00 63 1021.1
20260505085710 4 241 0.0 0.0 0.00 0.00 0.00 62 1021.0
20260505085429 4 242 0.0 0.0 0.00 0.00 0.00 62 1020.8
20260505084653 4 229 0.0 0.0 0.00 0.00 0.00 62 1020.8
20260505084155 4 200 0.0 0.0 0.00 0.00 0.00 62 1020.8
20260505083648 4 227 0.0 0.0 0.00 0.00 0.00 62 1020.7
20260505083151 4 227 0.0 0.0 0.00 0.00 0.00 62 1020.6
20260505083138 4 227 0.0 0.0 0.00 0.00 0.00 62 1020.5
20260505082134 4 227 0.0 0.0 0.00 0.00 0.00 62 1020.5
20260505081908 4 227 0.0 0.0 0.00 0.00 0.00 63 1020.5
20260505081347 4 246 0.0 0.0 0.00 0.00 0.00 63 1020.5
20260505080615 4 246 0.0 0.0 0.00 0.00 0.00 63 1020.5
20260505080055 4 246 0.0 0.0 0.00 0.00 0.00 63 1020.5
20260505075823 4 246 0.0 0.0 0.00 0.00 0.00 63 1020.5
20260505075031 4 246 0.0 0.0 0.00 0.00 0.00 63 1020.3
20260505074528 4 246 0.0 0.0 0.00 0.00 0.00 63 1020.3
20260505074023 4 246 0.0 0.0 0.00 0.00 0.00 63 1020.3
20260505073520 4 246 0.0 0.0 0.00 0.00 0.00 63 1020.3
20260505072956 4 246 0.0 0.0 0.00 0.00 0.00 63 1020.3
20260505072703 4 246 0.0 0.0 0.00 0.00 0.00 63 1020.3
20260505071907 5 246 0.0 0.0 0.00 0.00 0.00 62 1020.3
20260505071345 5 246 0.0 0.0 0.00 0.00 0.00 62 1020.4
20260505070819 5 246 0.0 0.0 0.00 0.00 0.00 62 1020.4
20260505070308 5 246 0.0 0.0 0.00 0.00 0.00 62 1020.4
20260505070246 5 246 0.0 0.0 0.00 0.00 0.00 62 1020.5
20260505065219 5 246 0.0 0.0 0.00 0.00 0.00 62 1020.5
20260505064714 5 246 0.0 0.0 0.00 0.00 0.00 62 1020.5
20260505064212 5 246 0.0 0.0 0.00 0.00 0.00 61 1020.5
20260505063656 5 246 0.0 0.0 0.00 0.00 0.00 61 1020.4
20260505063157 5 246 0.0 0.0 0.00 0.00 0.00 61 1020.3
20260505062633 5 246 0.0 0.0 0.00 0.00 0.00 60 1020.4
20260505062107 5 246 0.0 0.0 0.00 0.00 0.00 60 1020.4
20260505061810 5 246 0.0 0.0 0.00 0.00 0.00 60 1020.4
20260505061039 5 216 0.0 0.0 0.00 0.00 0.00 59 1020.4
20260505060531 5 216 0.0 0.0 0.00 0.00 0.00 59 1020.5
20260505060034 5 215 0.0 0.0 0.00 0.00 0.00 59 1020.5
20260505055507 5 216 0.0 0.0 0.00 0.00 0.00 59 1020.5
20260505054939 5 216 0.0 0.0 0.00 0.00 0.00 58 1020.3
20260505054437 6 215 0.0 0.0 0.00 0.00 0.00 58 1020.3
20260505053910 6 216 0.0 0.0 0.00 0.00 0.00 58 1020.3
20260505053406 6 216 0.0 0.0 0.00 0.00 0.00 58 1020.4
20260505052847 6 216 0.0 0.0 0.00 0.00 0.00 58 1020.3
20260505052346 6 186 0.0 0.0 0.00 0.00 0.00 58 1020.2
20260505051818 6 261 0.0 0.0 0.00 0.00 0.00 58 1020.2
20260505051549 6 261 0.0 0.0 0.00 0.00 0.00 57 1020.1
20260505050750 6 261 0.0 0.0 0.00 0.00 0.00 57 1020.1
20260505050237 6 261 0.0 0.0 0.00 0.00 0.00 57 1020.1
20260505041612 6 221 0.0 0.0 0.00 0.00 0.00 53 1019.8
20260505041341 6 272 0.0 0.0 0.00 0.00 0.00 53 1020.0
20260505040547 6 272 0.0 0.0 0.00 0.00 0.00 53 1020.0
20260505040040 6 272 0.0 0.0 0.00 0.00 0.00 53 1020.0
20260505035538 6 267 0.0 0.0 0.00 0.00 0.00 52 1020.0
20260505035002 7 267 0.0 0.0 0.00 0.00 0.00 52 1019.8
20260505034728 7 266 0.0 0.0 0.00 0.00 0.00 52 1019.8
20260505033955 7 267 0.0 0.0 0.00 0.00 0.00 52 1019.7
20260505033430 7 267 0.0 0.0 0.00 0.00 0.00 51 1019.7
20260505032906 7 267 0.0 0.0 0.00 0.00 0.00 51 1019.8
20260505032353 7 252 0.0 0.0 0.00 0.00 0.00 50 1019.8
20260505031828 7 252 0.0 0.0 0.00 0.00 0.00 50 1019.7
20260505031259 7 252 0.0 0.0 0.00 0.00 0.00 49 1019.8
20260505030758 7 258 0.0 0.0 0.00 0.00 0.00 49 1019.8
20260505030246 7 259 0.0 0.0 0.00 0.00 0.00 49 1019.8
20260505025720 7 258 0.0 0.0 0.00 0.00 0.00 49 1019.7
20260505025451 7 247 0.0 0.0 0.00 0.00 0.00 48 1019.7
20260505024651 7 246 0.0 0.0 0.00 0.00 0.00 48 1019.6
20260505024149 7 246 0.0 0.0 0.00 0.00 0.00 48 1019.6
20260505023645 7 246 0.0 0.0 0.00 0.00 0.00 48 1019.6
20260505023144 8 246 0.0 0.0 0.00 0.00 0.00 47 1019.5
20260505022858 8 246 0.0 0.0 0.00 0.00 0.00 46 1019.4
20260505022130 8 243 0.0 0.0 0.00 0.00 0.00 46 1019.3
20260505021604 8 243 0.0 0.0 0.00 0.00 0.00 45 1019.3
20260505021036 8 243 0.0 0.0 0.00 0.00 0.00 45 1019.3
20260505020805 8 206 0.0 0.0 0.00 0.00 0.00 45 1019.2
20260505020018 8 246 0.0 0.0 0.00 0.00 0.00 44 1019.1
20260505015500 8 254 0.0 0.0 0.00 0.00 0.00 44 1019.1
20260505015005 8 254 0.0 0.0 0.00 0.00 0.00 44 1019.0
20260505014435 8 242 0.0 0.0 0.00 0.00 0.00 43 1019.0
20260505014203 8 236 0.0 1.6 0.00 0.00 0.00 43 1018.9
20260505013406 9 234 0.0 6.4 0.00 0.00 0.00 42 1019.0
20260505012840 9 239 0.0 6.4 0.00 0.00 0.00 42 1018.8
20260505012314 9 296 0.0 1.6 0.00 0.00 0.00 43 1018.7
20260505011808 9 121 0.0 4.8 0.00 0.00 0.00 44 1018.6
20260505011243 10 14 0.0 4.8 0.00 0.00 0.00 43 1018.5
20260505010742 10 319 0.0 6.4 0.00 0.00 0.00 43 1018.3
20260505010238 10 275 0.0 6.4 0.00 0.00 0.00 43 1018.3
20260505005734 10 236 0.0 6.4 0.00 0.00 0.00 43 1018.1
20260505005217 10 226 0.0 14.5 0.00 0.00 0.00 43 1018.0
20260505004717 10 302 0.0 14.5 0.00 0.00 0.00 42 1017.9
20260505004152 11 263 0.0 11.3 0.00 0.00 0.00 42 1017.9
20260505003628 11 305 0.0 11.3 0.00 0.00 0.00 41 1017.8